EW5401 Weather Reports


Display with metric or nautical units.
time (UTC)temp
F
wind
direction
speed
MPH
gust
MPH
rain 1hr
in
rain 24hr
in
rain mn
in
humidity
%
barometer
mb
20260901023055 66 189 0.0 0.0 0.00 0.03 0.03 93 1017.2
20260901021555 66 189 0.0 0.0 0.00 0.03 0.03 93 1017.3
20260901020052 66 189 0.0 0.0 0.00 0.03 0.03 92 1017.2
20260901014552 66 189 0.0 2.0 0.00 0.03 0.03 92 1017.0
20260901013050 67 189 0.0 4.0 0.01 0.03 0.03 92 1017.1
20260901011556 67 186 0.0 4.0 0.02 0.03 0.03 91 1017.2
20260901010049 67 250 0.0 2.0 0.02 0.03 0.03 91 1017.3
20260901004548 68 198 1.0 4.0 0.02 0.03 0.03 90 1017.3
20260901003056 69 202 1.0 3.0 0.01 0.02 0.02 89 1017.3
20260901001548 69 213 1.0 3.0 0.00 0.01 0.01 88 1017.2
20260901000047 70 195 0.0 1.0 0.00 0.01 0.01 87 1016.9
20260831234546 70 195 0.0 1.0 0.00 0.13 0.01 87 1016.8
20260831233047 70 195 0.0 0.0 0.00 0.13 0.01 86 1016.9
20260831231545 71 195 0.0 1.0 0.00 0.13 0.01 85 1017.0
20260831230043 71 195 0.0 1.0 0.00 0.13 0.01 84 1017.1
20260831224543 72 246 0.0 2.0 0.00 0.13 0.01 84 1017.2
20260831223043 72 246 0.0 2.0 0.00 0.13 0.01 82 1017.2
20260831221544 73 246 0.0 2.0 0.00 0.13 0.01 82 1017.4
20260831220045 73 292 1.0 3.0 0.00 0.13 0.01 82 1017.4
20260831214544 73 200 0.0 3.0 0.00 0.13 0.01 83 1017.4
20260831213044 73 321 0.0 2.0 0.00 0.13 0.01 82 1017.4
20260831211540 74 321 0.0 1.0 0.00 0.13 0.01 81 1017.3
20260831210039 74 321 1.0 2.0 0.00 0.13 0.01 81 1017.4
20260831204552 74 321 0.0 2.0 0.00 0.13 0.01 82 1017.2
20260831203054 74 321 0.0 3.0 0.00 0.13 0.01 81 1017.4
20260831201538 73 110 0.0 2.0 0.00 0.13 0.01 82 1017.2
20260831200039 73 110 0.0 2.0 0.00 0.13 0.01 82 1017.3
20260831194536 73 110 0.0 1.0 0.00 0.13 0.01 81 1017.4
20260831193034 73 110 0.0 1.0 0.00 0.13 0.01 80 1017.8
20260831191534 74 110 0.0 2.0 0.00 0.13 0.01 79 1018.1
20260831190047 74 303 0.0 2.0 0.00 0.13 0.01 76 1017.8
20260831184532 74 325 0.0 1.0 0.00 0.13 0.01 80 1017.8
20260831183029 73 196 0.0 1.0 0.00 0.13 0.01 79 1018.2
20260831181528 74 196 0.0 1.0 0.00 0.13 0.01 78 1018.4
20260831180033 75 196 0.0 2.0 0.00 0.13 0.01 76 1018.2
20260831174526 75 196 0.0 1.0 0.00 0.13 0.01 75 1018.3
20260831173026 75 196 1.0 3.0 0.00 0.13 0.01 71 1018.4
20260831171526 76 196 1.0 4.0 0.00 0.13 0.01 70 1018.7
20260831170033 76 293 2.0 6.0 0.00 0.13 0.01 69 1018.7
20260831164524 77 78 0.0 3.0 0.00 0.13 0.01 70 1018.7
20260831163025 77 194 0.0 4.0 0.00 0.13 0.01 70 1018.8
20260831161522 77 313 1.0 4.0 0.00 0.13 0.01 68 1019.0
20260831160037 77 163 2.0 4.0 0.00 0.13 0.01 66 1019.4
20260831154519 76 314 1.0 8.0 0.00 0.13 0.01 69 1019.2
20260831153036 76 304 2.0 6.0 0.00 0.13 0.01 74 1019.4
20260831151514 74 219 2.0 4.0 0.00 0.13 0.01 79 1019.3
20260831150012 73 248 1.0 3.0 0.00 0.13 0.01 78 1019.3
20260831144510 73 174 0.0 2.0 0.00 0.13 0.01 79 1019.3
20260831143010 73 238 0.0 2.0 0.00 0.13 0.01 78 1019.3
20260831141606 72 238 0.0 3.0 0.00 0.13 0.01 79 1019.2
20260831140007 71 185 1.0 4.0 0.00 0.13 0.01 81 1019.2
20260831134606 70 71 0.0 0.0 0.00 0.13 0.01 86 1019.3
20260831133057 68 71 0.0 0.0 0.00 0.13 0.01 87 1019.3
20260831131553 67 80 0.0 0.0 0.00 0.13 0.01 91 1019.2
20260831130057 65 89 0.0 0.0 0.00 0.13 0.01 93 1019.6
20260831124553 65 39 0.0 0.0 0.00 0.13 0.01 96 1019.6
20260831123052 64 39 0.0 0.0 0.00 0.13 0.01 96 1019.6
20260831121549 63 39 0.0 0.0 0.00 0.13 0.01 96 1019.7
20260831120134 63 117 0.0 0.0 0.00 0.13 0.01 96 1019.7
20260831114546 62 117 0.0 0.0 0.00 0.13 0.01 96 1019.7
20260831113043 62 117 0.0 0.0 0.00 0.13 0.01 96 1019.4
20260831111548 61 117 0.0 0.0 0.00 0.13 0.01 96 1019.1
20260831110040 61 117 0.0 0.0 0.01 0.13 0.01 96 1019.1
20260831104541 61 117 0.0 0.0 0.01 0.13 0.01 96 1019.0
20260831103044 60 117 0.0 0.0 0.01 0.13 0.01 95 1018.7
20260831101536 61 117 0.0 0.0 0.01 0.13 0.01 95 1018.4
20260831100042 61 117 0.0 0.0 0.00 0.12 0.00 95 1018.6
20260831094535 61 117 0.0 0.0 0.00 0.12 0.00 95 1018.4
20260831093031 62 117 0.0 0.0 0.00 0.12 0.00 95 1018.4
20260831091531 62 117 0.0 0.0 0.00 0.12 0.00 95 1018.4
20260831090031 62 117 0.0 0.0 0.00 0.12 0.00 95 1018.4
20260831084533 62 117 0.0 0.0 0.00 0.12 0.00 95 1018.5
20260831083028 62 117 0.0 0.0 0.00 0.12 0.00 96 1018.4
20260831081540 62 117 0.0 0.0 0.00 0.12 0.00 95 1018.5
20260831080028 62 117 0.0 0.0 0.00 0.12 0.00 95 1018.1
20260831074625 62 117 0.0 0.0 0.00 0.12 0.00 95 1018.2
20260831073024 62 117 0.0 0.0 0.00 0.12 0.00 95 1018.2
20260831071526 62 117 0.0 0.0 0.00 0.12 0.00 95 1018.1
20260831070028 62 117 0.0 0.0 0.00 0.12 0.00 95 1018.2
20260831064522 62 117 0.0 0.0 0.00 0.12 0.00 95 1018.0
20260831063025 62 117 0.0 0.0 0.00 0.12 0.00 94 1017.9
20260831061518 62 117 0.0 0.0 0.00 0.12 0.00 94 1018.1
20260831060017 63 117 0.0 1.0 0.00 0.12 0.00 94 1018.2
20260831054515 63 117 0.0 1.0 0.00 0.12 0.00 94 1018.1
20260831053014 63 161 0.0 2.0 0.00 0.12 0.00 94 1018.2
20260831051524 64 234 1.0 3.0 0.00 0.12 0.00 94 1018.1
20260831050011 64 294 0.0 0.0 0.00 0.12 0.00 94 1018.2
20260831044510 64 294 0.0 2.0 0.00 0.12 0.00 94 1018.3
20260831043006 65 294 0.0 0.0 0.00 0.12 0.00 94 1018.3
20260831041506 65 294 0.0 1.0 0.00 0.12 0.00 94 1018.2
20260831040010 65 294 0.0 0.0 0.00 0.12 0.00 94 1018.2
20260831034503 65 294 0.0 0.0 0.00 0.12 0.12 94 1018.1
20260831033003 66 294 0.0 1.0 0.00 0.12 0.12 94 1018.1
20260831031505 65 294 0.0 1.0 0.00 0.12 0.12 94 1018.2
20260831030001 65 294 0.0 1.0 0.00 0.12 0.12 94 1018.1
20260831024502 66 294 0.0 1.0 0.00 0.12 0.12 94 1018.2